When you browse on this site, cookies collect data to enhance your experience and personalize the content and advertising you see.
Visit our Privacy Policy to learn more. By continuing to use the site, you agree to this use of cookies and data.
  • In Portugal
  • List of Countries
  • For 7 days
  • Water Temperature
  • Satellite Maps
  • Weather Map
  • Weather Widgets
  • user-avatar
    Login

    Hourly Weather Namibe

    Today, 22 March, Friday

    Time Temperature Precipitation Wind Pressure Humidity
    00:00 +29°C° 0 mm 2 mps 756 mmHg 67%
    01:00 +29°C° 0 mm 3 mps 756 mmHg 67%
    02:00 +29°C° 0 mm 3 mps 756 mmHg 67%
    03:00 +28°C° 0 mm 3 mps 756 mmHg 68%
    04:00 +28°C° 0 mm 3 mps 756 mmHg 68%
    05:00 +28°C° 0 mm 2 mps 756 mmHg 67%
    06:00 +29°C° 0 mm 2 mps 756 mmHg 66%
    07:00 +29°C° 0 mm 2 mps 756 mmHg 65%
    08:00 +30°C° 0 mm 2 mps 756 mmHg 60%
    09:00 +31°C° 0 mm 1 mps 756 mmHg 56%
    10:00 +33°C° 0 mm 1 mps 756 mmHg 52%
    11:00 +34°C° 0 mm 2 mps 756 mmHg 50%
    12:00 +35°C° 0 mm 4 mps 755 mmHg 48%
    13:00 +36°C° 0 mm 5 mps 755 mmHg 46%
    14:00 +35°C° 0.4 mm 4 mps 755 mmHg 49%
    15:00 +34°C° 0.4 mm 4 mps 755 mmHg 53%
    16:00 +32°C° 0.4 mm 4 mps 754 mmHg 56%
    17:00 +31°C° 1.2 mm 3 mps 755 mmHg 59%
    18:00 +30°C° 1.2 mm 2 mps 755 mmHg 62%
    19:00 +29°C° 1.2 mm 1 mps 756 mmHg 66%
    20:00 +29°C° 0.3 mm 1 mps 756 mmHg 65%
    21:00 +30°C° 0.3 mm 1 mps 757 mmHg 64%
    22:00 +30°C° 0.3 mm 1 mps 757 mmHg 63%
    23:00 +30°C° 0.1 mm 1 mps 757 mmHg 63%

    Tomorrow, 23 March, Saturday

    Time Temperature Precipitation Wind Pressure Humidity
    00:00 +31°C° 0.1 mm 1 mps 757 mmHg 63%
    01:00 +31°C° 0.1 mm 2 mps 757 mmHg 62%
    02:00 +31°C° 0.1 mm 2 mps 757 mmHg 63%
    03:00 +31°C° 0.1 mm 2 mps 756 mmHg 64%
    04:00 +31°C° 0.1 mm 2 mps 756 mmHg 65%
    05:00 +31°C° 0 mm 2 mps 756 mmHg 64%
    06:00 +30°C° 0 mm 3 mps 756 mmHg 64%
    07:00 +30°C° 0 mm 3 mps 756 mmHg 64%
    08:00 +33°C° 0 mm 3 mps 757 mmHg 60%
    09:00 +34°C° 0 mm 3 mps 757 mmHg 55%
    10:00 +35°C° 0 mm 3 mps 757 mmHg 51%
    11:00 +35°C° 0 mm 4 mps 757 mmHg 50%
    12:00 +35°C° 0 mm 4 mps 756 mmHg 49%
    13:00 +36°C° 0 mm 4 mps 756 mmHg 48%
    14:00 +35°C° 0.1 mm 4 mps 755 mmHg 50%
    15:00 +34°C° 0.1 mm 3 mps 755 mmHg 53%
    16:00 +34°C° 0.1 mm 3 mps 755 mmHg 55%
    17:00 +33°C° 0.8 mm 4 mps 755 mmHg 60%
    18:00 +32°C° 0.8 mm 4 mps 756 mmHg 64%
    19:00 +30°C° 0.8 mm 5 mps 756 mmHg 68%
    20:00 +30°C° 0.3 mm 4 mps 757 mmHg 68%
    21:00 +30°C° 0.3 mm 3 mps 758 mmHg 67%
    22:00 +30°C° 0.3 mm 2 mps 758 mmHg 67%
    23:00 +29°C° 2 mm 2 mps 758 mmHg 70%

    Day after tomorrow, 24 March, Sunday

    Time Temperature Precipitation Wind Pressure Humidity
    00:00 +29°C° 2 mm 2 mps 758 mmHg 73%
    01:00 +29°C° 2 mm 2 mps 757 mmHg 76%
    02:00 +29°C° 0.3 mm 2 mps 757 mmHg 75%
    03:00 +29°C° 0.3 mm 2 mps 757 mmHg 75%
    04:00 +29°C° 0.3 mm 2 mps 756 mmHg 74%
    05:00 +29°C° 0.2 mm 3 mps 756 mmHg 73%
    06:00 +29°C° 0.2 mm 4 mps 756 mmHg 72%
    07:00 +29°C° 0.2 mm 4 mps 756 mmHg 71%
    08:00 +32°C° 0 mm 4 mps 757 mmHg 63%
    09:00 +34°C° 0 mm 3 mps 757 mmHg 55%
    10:00 +36°C° 0 mm 3 mps 757 mmHg 47%
    11:00 +36°C° 0 mm 4 mps 757 mmHg 46%
    12:00 +37°C° 0 mm 5 mps 756 mmHg 45%
    13:00 +38°C° 0 mm 6 mps 755 mmHg 44%
    14:00 +36°C° 0 mm 6 mps 755 mmHg 50%
    15:00 +34°C° 0 mm 6 mps 754 mmHg 55%
    16:00 +32°C° 0 mm 6 mps 754 mmHg 61%
    17:00 +30°C° 0 mm 6 mps 755 mmHg 63%
    18:00 +29°C° 0 mm 5 mps 755 mmHg 64%
    19:00 +28°C° 0 mm 4 mps 756 mmHg 66%
    20:00 +28°C° 0 mm 3 mps 756 mmHg 64%
    21:00 +28°C° 0 mm 2 mps 757 mmHg 62%
    22:00 +28°C° 0 mm 1 mps 758 mmHg 61%
    23:00 +28°C° 0 mm 1 mps 757 mmHg 62%

    25 March, Monday

    Time Temperature Precipitation Wind Pressure Humidity
    00:00 +28°C° 0 mm 2 mps 757 mmHg 63%
    01:00 +28°C° 0 mm 2 mps 757 mmHg 64%
    02:00 +27°C° 0 mm 2 mps 757 mmHg 66%
    03:00 +27°C° 0 mm 2 mps 756 mmHg 68%
    04:00 +26°C° 0 mm 2 mps 756 mmHg 70%
    05:00 +26°C° 0 mm 2 mps 756 mmHg 69%
    06:00 +26°C° 0 mm 2 mps 756 mmHg 69%
    07:00 +26°C° 0 mm 1 mps 757 mmHg 68%
    08:00 +28°C° 0 mm 2 mps 757 mmHg 61%
    09:00 +29°C° 0 mm 2 mps 757 mmHg 54%
    10:00 +31°C° 0 mm 2 mps 757 mmHg 47%
    11:00 +31°C° 0 mm 3 mps 756 mmHg 47%
    12:00 +32°C° 0 mm 4 mps 756 mmHg 47%
    13:00 +32°C° 0 mm 5 mps 755 mmHg 47%
    14:00 +32°C° 0 mm 5 mps 755 mmHg 50%
    15:00 +30°C° 0 mm 5 mps 755 mmHg 52%
    16:00 +30°C° 0 mm 5 mps 754 mmHg 55%
    17:00 +29°C° 0 mm 4 mps 755 mmHg 59%
    18:00 +28°C° 0 mm 3 mps 756 mmHg 64%
    19:00 +27°C° 0 mm 3 mps 756 mmHg 68%
    20:00 +27°C° 0 mm 2 mps 757 mmHg 69%
    21:00 +27°C° 0 mm 2 mps 757 mmHg 69%
    22:00 +27°C° 0 mm 2 mps 758 mmHg 70%
    23:00 +27°C° 0 mm 2 mps 758 mmHg 71%

    26 March, Tuesday

    Time Temperature Precipitation Wind Pressure Humidity
    00:00 +27°C° 0 mm 2 mps 757 mmHg 72%
    01:00 +26°C° 0 mm 2 mps 757 mmHg 73%
    02:00 +26°C° 0 mm 1 mps 757 mmHg 74%
    03:00 +26°C° 0 mm 1 mps 756 mmHg 76%
    04:00 +26°C° 0 mm 1 mps 756 mmHg 78%
    05:00 +26°C° 0 mm 1 mps 756 mmHg 77%
    06:00 +26°C° 0 mm 1 mps 757 mmHg 77%
    07:00 +26°C° 0 mm 1 mps 757 mmHg 77%
    08:00 +27°C° 0 mm 1 mps 757 mmHg 72%
    09:00 +28°C° 0 mm 2 mps 757 mmHg 67%
    10:00 +29°C° 0 mm 2 mps 758 mmHg 63%
    11:00 +30°C° 0 mm 3 mps 757 mmHg 61%
    12:00 +31°C° 0 mm 3 mps 756 mmHg 59%
    13:00 +32°C° 0 mm 4 mps 756 mmHg 57%
    14:00 +32°C° 0 mm 4 mps 755 mmHg 58%
    15:00 +32°C° 0 mm 4 mps 755 mmHg 59%
    16:00 +30°C° 0 mm 4 mps 755 mmHg 59%
    17:00 +29°C° 0 mm 3 mps 755 mmHg 62%
    18:00 +29°C° 0 mm 3 mps 756 mmHg 64%
    19:00 +28°C° 0 mm 2 mps 756 mmHg 67%
    20:00 +28°C° 0 mm 2 mps 757 mmHg 67%
    21:00 +28°C° 0 mm 1 mps 757 mmHg 68%
    22:00 +28°C° 0 mm 1 mps 758 mmHg 69%
    23:00 +28°C° 0 mm 1 mps 757 mmHg 68%

    27 March, Wednesday

    Time Temperature Precipitation Wind Pressure Humidity
    00:00 +28°C° 0 mm 1 mps 757 mmHg 67%
    01:00 +28°C° 0 mm 1 mps 757 mmHg 66%
    02:00 +29°C° 0 mm 1 mps 756 mmHg 66%
    03:00 +29°C° 0 mm 1 mps 756 mmHg 66%
    04:00 +29°C° 0 mm 1 mps 756 mmHg 66%
    05:00 +29°C° 0 mm 1 mps 756 mmHg 67%
    06:00 +28°C° 0 mm 2 mps 757 mmHg 68%
    07:00 +28°C° 0 mm 2 mps 757 mmHg 69%
    08:00 +29°C° 0 mm 2 mps 757 mmHg 65%
    09:00 +30°C° 0 mm 2 mps 757 mmHg 61%
    10:00 +31°C° 0 mm 2 mps 758 mmHg 58%
    11:00 +33°C° 0 mm 3 mps 757 mmHg 56%
    12:00 +33°C° 0 mm 4 mps 757 mmHg 55%
    13:00 +34°C° 0 mm 5 mps 756 mmHg 53%
    14:00 +33°C° 0 mm 5 mps 756 mmHg 54%
    15:00 +33°C° 0 mm 4 mps 756 mmHg 55%
    16:00 +33°C° 0 mm 4 mps 756 mmHg 56%
    17:00 +32°C° 0 mm 4 mps 756 mmHg 59%
    18:00 +30°C° 0 mm 3 mps 757 mmHg 62%
    19:00 +29°C° 0 mm 2 mps 757 mmHg 65%
    20:00 +29°C° 0.3 mm 2 mps 758 mmHg 66%
    21:00 +29°C° 0.3 mm 1 mps 758 mmHg 68%
    22:00 +29°C° 0.3 mm 1 mps 759 mmHg 70%
    23:00 +28°C° 0.3 mm 1 mps 758 mmHg 71%
    Show more